Location: Newark
(43.0000°N, 1.6781°W)
Time: 00:04:05
(UTC+00:00)

ISS - Visible Passes

Search period start: 03 February 2023 00:00
Search period end: 13 February 2023 00:00
Orbit: 412 x 419 km, 51.6° (Epoch: 02 February)

Date Brightness Start Highest point End Pass type
(mag) Time Alt. Az. Time Alt. Az. Time Alt. Az.
03 Feb -1.3 19:06:25 10° W 19:09:04 21° SW 19:11:34 11° S visible
04 Feb -2.2 18:17:19 10° WNW 18:20:27 36° SW 18:23:33 10° SSE visible
06 Feb -0.6 18:17:26 10° W 18:19:18 14° SW 18:21:08 10° SSW visible
